Date,TemperatureHighF,TemperatureAvgF,TemperatureLowF,DewpointHighF,DewpointAvgF,DewpointLowF,HumidityHigh,HumidityAvg,HumidityLow,PressureMaxIn,PressureMinIn,WindSpeedMaxMPH,WindSpeedAvgMPH,GustSpeedMaxMPH,PrecipitationSumIn
2013-2-6,62.5,61.9,61.3,44.3,43.8,43.2,52,51,51,30.08,30.07,0,0,0,0.00
2013-2-7,61.3,60.6,60.0,43.2,42.7,42.1,52,52,52,30.07,30.06,0,0,1,0.00
2013-2-8,60.0,59.4,58.8,42.1,41.6,41.0,52,52,52,30.06,30.05,0,0,1,0.00
2013-2-9,58.8,58.1,57.5,41.0,40.4,39.9,52,52,52,30.05,30.04,0,0,1,0.00
2013-2-10,57.5,52.6,34.8,39.9,38.2,32.5,92,60,52,30.06,30.01,0,0,2,0.00
2013-2-11,59.7,43.6,29.0,42.4,35.7,27.8,97,76,44,30.23,30.06,4,0,6,0.00
2013-2-12,62.6,45.1,32.2,42.1,36.2,30.9,96,74,38,30.36,30.23,5,0,6,0.00
2013-2-13,38.0,37.2,36.6,34.4,33.9,33.5,89,88,86,30.31,30.30,1,0,1,0.00
2013-2-14,39.0,38.7,38.5,35.3,35.1,34.8,87,86,86,30.26,30.21,0,0,0,0.00
2013-2-15,39.5,39.2,39.0,35.9,35.6,35.3,87,87,87,30.21,30.17,0,0,0,0.00
2013-2-16,40.0,39.7,39.5,36.5,36.2,35.9,87,87,87,30.17,30.12,0,0,0,0.00
2013-2-17,40.5,40.2,40.0,37.1,36.8,36.5,87,87,87,30.12,30.07,0,0,0,0.00
2013-2-18,70.0,50.3,34.2,50.6,41.3,32.6,98,75,35,30.07,29.84,7,1,13,0.00
2013-2-19,52.6,45.7,37.9,42.7,39.1,36.4,95,79,59,29.94,29.69,8,1,15,0.30
2013-2-20,50.0,41.7,36.8,42.3,38.0,34.9,96,87,71,30.06,29.77,9,0,9,0.00
2013-2-21,37.4,37.2,36.7,35.8,35.4,34.8,94,93,93,30.06,30.04,2,0,2,0.00
2013-2-22,61.8,46.9,33.9,43.9,38.7,32.6,97,76,46,30.24,30.15,6,0,9,0.00
2013-2-23,60.1,47.2,35.2,46.8,38.7,31.4,97,74,47,30.22,30.05,16,1,16,0.00
2013-2-24,60.6,44.5,32.0,40.2,34.0,28.1,92,69,41,30.24,30.11,7,0,7,0.00
2013-2-25,66.6,48.3,30.7,43.9,36.3,29.2,96,68,32,30.26,30.10,7,0,7,0.00
2013-2-26,63.8,47.7,32.8,45.1,39.3,31.3,97,75,48,30.19,30.09,8,0,8,0.00
2013-2-27,68.5,50.3,33.4,45.8,39.6,31.7,96,71,36,30.32,30.18,7,0,7,0.00
2013-2-28,71.7,52.6,35.1,46.9,40.4,33.3,95,68,34,30.41,30.32,8,0,8,0.00